AA2YS Weather Reports


Display with metric or nautical units.
time (UTC)temp
F
wind
direction
speed
MPH
gust
MPH
rain 1hr
in
rain 24hr
in
rain mn
in
humidity
%
barometer
mb
20260507123519 42 0.0 3.0 0.00 0.15 0.00 95 1012.5
20260507122520 42 0.0 0.0 0.00 0.15 0.00 95 1012.8
20260507121519 41 0.0 0.0 0.00 0.15 0.00 95 1012.5
20260507120540 41 0.0 0.0 0.00 0.16 0.00 94 1012.6
20260507115520 40 0.0 0.0 0.00 0.17 0.00 94 1012.6
20260507114520 39 0.0 0.0 0.00 0.18 0.00 94 1012.6
20260507113520 39 0.0 0.0 0.00 0.18 0.00 94 1012.2
20260507112600 38 0.0 0.0 0.00 0.18 0.00 93 1012.4
20260507111519 38 0.0 0.0 0.00 0.19 0.00 93 1012.6
20260507110519 38 0.0 0.0 0.00 0.19 0.00 93 1012.7
20260507105519 37 0.0 0.0 0.00 0.20 0.00 93 1012.5
20260507104520 37 0.0 0.0 0.00 0.21 0.00 92 1012.4
20260507103519 37 0.0 1.0 0.00 0.22 0.00 92 1012.2
20260507102519 37 0.0 0.0 0.00 0.23 0.00 91 1012.1
20260507101519 36 0.0 0.0 0.00 0.24 0.00 91 1011.9
20260507100520 36 0.0 0.0 0.00 0.25 0.00 91 1012.0
20260507095520 36 0.0 0.0 0.00 0.26 0.00 90 1012.1
20260507094520 36 0.0 0.0 0.00 0.28 0.00 90 1012.0
20260507093520 36 0.0 0.0 0.00 0.29 0.00 90 1012.1
20260507092520 37 0.0 0.0 0.00 0.30 0.00 90 1012.1
20260507091520 37 0.0 0.0 0.00 0.31 0.00 90 1012.0
20260507090520 37 0.0 0.0 0.00 0.32 0.00 89 1011.8
20260507085540 37 0.0 0.0 0.00 0.32 0.00 89 1011.9
20260507084520 38 0.0 0.0 0.00 0.33 0.00 90 1011.8
20260507083520 38 0.0 0.0 0.00 0.34 0.00 90 1012.0
20260507082540 38 0.0 0.0 0.00 0.35 0.00 90 1012.1
20260507081519 39 0.0 0.0 0.00 0.36 0.00 89 1012.1
20260507080520 39 0.0 0.0 0.00 0.38 0.00 89 1011.8
20260507075520 39 0.0 0.0 0.00 0.39 0.00 89 1012.0
20260507074519 40 0.0 0.0 0.00 0.42 0.00 90 1012.1
20260507073539 40 0.0 0.0 0.00 0.44 0.00 90 1012.0
20260507072519 40 0.0 0.0 0.00 0.47 0.00 90 1012.2
20260507071539 41 0.0 0.0 0.00 0.49 0.00 90 1012.3
20260507070520 41 0.0 0.0 0.00 0.51 0.00 90 1012.2
20260507065519 42 0.0 0.0 0.00 0.53 0.00 90 1012.2
20260507064519 42 0.0 0.0 0.00 0.56 0.00 90 1012.0
20260507063520 42 0.0 0.0 0.00 0.59 0.00 90 1011.9
20260507062520 42 0.0 0.0 0.00 0.62 0.00 90 1012.0
20260507061519 42 0.0 0.0 0.00 0.64 0.00 90 1011.8
20260507060520 43 0.0 0.0 0.00 0.69 0.00 90 1012.1
20260507055539 43 0.0 0.0 0.00 0.72 0.00 91 1012.2
20260507054520 43 0.0 0.0 0.00 0.73 0.00 91 1012.4
20260507053520 43 0.0 0.0 0.00 0.74 0.00 91 1012.4
20260507052519 43 0.0 0.0 0.00 0.75 0.00 91 1012.5
20260507051519 43 0.0 0.0 0.00 0.77 0.00 91 1012.4
20260507050519 44 0.0 0.0 0.00 0.79 0.00 91 1012.6
20260507045519 44 0.0 0.0 0.00 0.81 0.00 91 1012.5
20260507044520 44 0.0 0.0 0.00 0.82 0.00 91 1012.5
20260507043540 44 0.0 0.0 0.00 0.83 0.00 91 1012.5
20260507042540 44 0.0 0.0 0.00 0.84 0.00 91 1012.5
20260507041540 44 0.0 0.0 0.00 0.84 0.00 91 1012.4
20260507040520 44 0.0 0.0 0.00 0.85 0.00 91 1012.2
20260507035518 44 0.0 0.0 0.00 0.86 0.86 91 1012.2
20260507034518 44 0.0 0.0 0.00 0.87 0.86 91 1012.2
20260507033518 44 0.0 0.0 0.00 0.88 0.86 91 1012.1
20260507032519 44 0.0 0.0 0.00 0.89 0.86 91 1012.1
20260507031518 44 0.0 0.0 0.00 0.89 0.86 91 1012.1
20260507030519 44 0.0 0.0 0.00 0.89 0.86 90 1012.0
20260507025518 44 0.0 0.0 0.00 0.89 0.86 90 1011.8
20260507024539 44 0.0 0.0 0.00 0.90 0.86 90 1012.0
20260507023518 44 0.0 0.0 0.00 0.90 0.86 90 1012.0
20260507022518 44 0.0 0.0 0.00 0.90 0.86 89 1011.8
20260507021518 45 0.0 0.0 0.00 0.91 0.86 89 1011.9
20260507020539 45 0.0 0.0 0.00 0.91 0.86 90 1012.1
20260507015518 45 0.0 0.0 0.00 0.92 0.86 89 1012.1
20260507014518 45 0.0 0.0 0.00 0.93 0.86 89 1012.0
20260507013518 45 0.0 0.0 0.01 0.95 0.86 89 1011.8
20260507012518 45 0.0 0.0 0.01 0.96 0.86 88 1012.0
20260507011518 46 0.0 1.0 0.01 0.96 0.86 88 1012.1
20260507010518 46 0.0 1.0 0.02 0.96 0.86 88 1012.0
20260507005518 46 68 1.0 5.0 0.05 0.97 0.86 88 1011.8
20260507004518 47 0.0 2.0 0.05 0.97 0.86 87 1011.6
20260507003518 47 0.0 2.0 0.06 0.97 0.85 86 1011.1
20260507002538 48 0.0 0.0 0.08 0.97 0.85 86 1010.9
20260507001518 48 0.0 3.0 0.10 0.97 0.85 85 1011.0
20260507000519 49 0.0 2.0 0.10 0.97 0.84 86 1011.0
20260506235559 50 225 1.0 7.0 0.07 0.94 0.81 85 1010.7
20260506234518 50 0.0 0.0 0.07 0.95 0.81 84 1010.5
20260506233538 50 0.0 0.0 0.05 0.93 0.79 84 1010.4
20260506232518 50 0.0 0.0 0.03 0.92 0.77 84 1010.1
20260506231518 51 0.0 0.0 0.01 0.92 0.75 84 1010.0
20260506230518 51 0.0 0.0 0.00 0.92 0.74 84 1009.8
20260506225518 51 0.0 0.0 0.00 0.93 0.74 83 1009.7
20260506224519 51 0.0 0.0 0.00 0.94 0.74 83 1009.6
20260506223518 51 0.0 0.0 0.00 0.95 0.74 83 1009.6
20260506222518 51 0.0 0.0 0.00 0.97 0.74 83 1009.5
20260506221519 51 0.0 0.0 0.00 0.97 0.74 83 1009.5
20260506220518 51 0.0 0.0 0.00 0.97 0.74 84 1009.5
20260506215519 51 0.0 0.0 0.00 0.97 0.74 84 1009.4
20260506214519 51 0.0 0.0 0.00 0.97 0.74 84 1009.2
20260506213518 52 0.0 0.0 0.00 0.97 0.74 84 1009.5
20260506213450 52 0.0 0.0 0.00 0.97 0.74 84 1009.4
20260506172108 47 0.0 2.0 0.00 0.97 0.74 92 1009.1
20260506171541 47 0.0 2.0 0.00 0.97 0.74 93 1008.7
20260506170522 47 0.0 3.0 0.00 0.97 0.74 93 1008.8
20260506165519 47 0.0 2.0 0.00 0.97 0.74 93 1008.8
20260506164522 47 45 1.0 4.0 0.00 0.97 0.74 93 1008.8
20260506163522 47 45 1.0 3.0 0.00 0.97 0.74 93 1008.9
20260506162521 47 0.0 3.0 0.00 0.97 0.74 94 1008.7
20260506161522 47 0.0 5.0 0.00 0.97 0.74 94 1008.8
20260506160522 47 0.0 1.0 0.00 0.97 0.74 94 1008.6
20260506155520 47 0.0 2.0 0.00 0.97 0.74 94 1008.9
20260506154521 47 0.0 2.0 0.00 0.97 0.74 94 1008.9
20260506153520 47 0.0 4.0 0.00 0.97 0.74 94 1008.8
20260506152520 47 45 1.0 5.0 0.00 0.97 0.74 94 1008.6
20260506151521 47 0.0 2.0 0.00 0.97 0.74 94 1008.6
20260506150520 47 0.0 2.0 0.00 0.97 0.74 94 1008.7
20260506145522 47 0.0 0.0 0.00 0.97 0.74 94 1008.6
20260506144521 46 0.0 1.0 0.01 0.97 0.74 94 1008.4
20260506143614 46 0.0 1.0 0.01 0.97 0.74 94 1008.3
20260506142542 46 0.0 2.0 0.01 0.97 0.74 94 1008.3
20260506141521 46 0.0 1.0 0.02 0.97 0.74 94 1008.2
20260506140521 46 0.0 1.0 0.02 0.97 0.74 94 1008.1
20260506135521 46 0.0 2.0 0.02 0.97 0.74 94 1008.3
20260506134521 46 0.0 1.0 0.01 0.96 0.73 94 1008.3
20260506133521 46 0.0 3.0 0.02 0.96 0.73 94 1008.3
20260506132520 46 23 1.0 5.0 0.02 0.96 0.73 94 1008.1
20260506131521 45 0.0 2.0 0.01 0.95 0.72 94 1008.0
20260506130540 45 0.0 0.0 0.02 0.95 0.72 94 1008.0
20260506125540 45 0.0 0.0 0.03 0.95 0.72 94 1008.0
20260506124520 45 0.0 0.0 0.04 0.95 0.72 94 1008.0